Weather History for Miami, FL

Change the Weather History Date:

Saturday, October 12, 2013

  Actual Average Record
Temperature  
Mean Temperature 80 °F 81 °F  
Max Temperature 87 °F 87 °F 91 °F (1986)
Min Temperature 72 °F 74 °F 60 °F (1903)
Degree Days  
Heating Degree Days 0 0  
Month to date heating degree days 0 0  
Since 1 July heating degree days 0 0  
Cooling Degree Days 15 16  
Month to date cooling degree days 200 197  
Year to date cooling degree days 3878 3809  
Growing Degree Days 30 (Base 50)    
Moisture  
Dew Point 65 °F    
Average Humidity 64    
Maximum Humidity 79    
Minimum Humidity 48    
Precipitation  
Precipitation 0.00 in 0.23 in 2.72 in (1964)
Month to date precipitation 5.65 3.16  
Year to date precipitation 58.80 53.42  
Snow  
Snow 0.00 in - - ()
Month to date snowfall 0.0  
Since 1 July snowfall 0.0  
Since 1 September snowfall 0.0  
Snow Depth 0.00 in    
Sea Level Pressure  
Sea Level Pressure 30.00 in    
Wind  
Wind Speed 5 mph (ENE)    
Max Wind Speed 14 mph    
Max Gust Speed 25 mph    
Visibility 10 miles    
Events      
T = Trace of Precipitation, MM = Missing Value Source: NWS Daily Summary

Daily Weather History Graph

Daily Weather History Graph

Search for Another Location

Airport:

Trip Planner

Search our weather history database for the weather conditions in past years. The results will help you decide how hot, cold, wet, or windy it might be!

Date:

Astronomy

Oct. 12, 2013 Rise Set
Actual Time 7:18 AM EDT 6:56 PM EDT
Civil Twilight 6:55 AM EDT 7:19 PM EDT
Nautical Twilight 6:28 AM EDT 7:46 PM EDT
Astronomical Twilight 6:02 AM EDT 8:12 PM EDT
Moon 2:31 PM EDT (10/12) 12:56 AM EDT (10/12)
Length of Visible Light 12h 23m
Length of Day
11h 37m
First Quarter, 58% of the Moon is Illuminated
Oct 12
First Quarter
Oct 18
Full
Oct 26
Last Quarter
Nov 3
New
Nov 10
First Quarter

Hourly Weather History & Observations

Time (EDT) Temp. Heat Index Dew Point Humidity Pressure Visibility Wind Dir Wind Speed Gust Speed Precip Events Conditions
12:53 AM 78.1 °F - 66.0 °F 66% 29.99 in 10.0 mi ENE 5.8 mph - N/A   Clear
1:53 AM 77.0 °F - 64.9 °F 66% 29.99 in 10.0 mi Calm Calm - N/A   Clear
2:53 AM 73.9 °F - 64.0 °F 71% 29.97 in 10.0 mi Calm Calm - N/A   Clear
3:53 AM 72.0 °F - 64.9 °F 78% 29.96 in 10.0 mi Calm Calm - N/A   Clear
4:53 AM 73.0 °F - 66.0 °F 79% 29.97 in 10.0 mi Calm Calm - N/A   Clear
5:53 AM 73.0 °F - 64.9 °F 76% 29.99 in 10.0 mi Calm Calm - N/A   Clear
6:53 AM 73.0 °F - 64.9 °F 76% 30.00 in 10.0 mi Calm Calm - N/A   Partly Cloudy
7:53 AM 75.0 °F - 66.0 °F 73% 30.01 in 10.0 mi Calm Calm - N/A   Partly Cloudy
8:53 AM 81.0 °F 83.0 °F 66.0 °F 60% 30.02 in 10.0 mi Calm Calm - N/A   Partly Cloudy
9:53 AM 82.9 °F 84.4 °F 64.0 °F 53% 30.03 in 10.0 mi Variable 4.6 mph - N/A   Partly Cloudy
10:53 AM 84.0 °F 85.8 °F 64.9 °F 53% 30.03 in 10.0 mi ENE 5.8 mph - N/A   Partly Cloudy
11:53 AM 84.9 °F 85.9 °F 63.0 °F 48% 30.03 in 10.0 mi NE 9.2 mph - N/A   Scattered Clouds
12:53 PM 84.0 °F 85.4 °F 64.0 °F 51% 30.01 in 10.0 mi ENE 6.9 mph - N/A   Scattered Clouds
1:53 PM 84.9 °F 87.1 °F 66.0 °F 53% 29.99 in 10.0 mi East 10.4 mph 18.4 mph N/A   Scattered Clouds
2:53 PM 82.9 °F 84.4 °F 64.0 °F 53% 29.98 in 10.0 mi East 9.2 mph 17.3 mph N/A   Mostly Cloudy
3:53 PM 84.0 °F 85.8 °F 64.9 °F 53% 29.98 in 10.0 mi East 9.2 mph - N/A   Mostly Cloudy
4:53 PM 82.9 °F 84.6 °F 64.9 °F 54% 29.99 in 10.0 mi NE 6.9 mph - N/A   Scattered Clouds
5:53 PM 82.0 °F 84.1 °F 66.0 °F 58% 29.99 in 10.0 mi ESE 13.8 mph - N/A   Mostly Cloudy
6:53 PM 81.0 °F 83.0 °F 66.0 °F 60% 30.00 in 10.0 mi NE 8.1 mph - N/A   Scattered Clouds
7:53 PM 80.1 °F 82.1 °F 66.0 °F 62% 30.01 in 10.0 mi ENE 6.9 mph - N/A   Scattered Clouds
8:53 PM 79.0 °F - 66.0 °F 64% 30.02 in 10.0 mi East 9.2 mph - N/A   Scattered Clouds
9:53 PM 78.1 °F - 66.0 °F 66% 30.04 in 10.0 mi East 6.9 mph - N/A   Partly Cloudy
10:53 PM 79.0 °F - 66.9 °F 66% 30.04 in 10.0 mi East 6.9 mph - N/A   Partly Cloudy
11:53 PM 77.0 °F - 66.9 °F 71% 30.04 in 10.0 mi East 5.8 mph - N/A   Partly Cloudy